Theta_e
311 312 312 314 318 324 329 332 330 326 324 323 325 330 331 334 339 341 341 340 337 335 334 334 333 332 330 330 328 328 328 328 327 327 327 326 324 322 320 320 324 330 331 329 327 324 322 326 329 327 324 321 321 321 319 314 311 311 311 313 321 327 328 328 329 330 330 331 332 332 331 330 330 330 330 330 329 328 327 326 326 326 325 324 323
311 311 312 312 315 319 326 332 331 329 327 322 323 329 330 332 337 340 341 340 339 336 333 333 334 334 334 333 330 329 329 329 328 328 328 327 326 324 322 322 326 332 333 331 329 326 324 326 329 328 326 322 320 320 317 313 311 311 313 317 325 328 328 328 328 329 331 331 332 331 330 330 330 329 329 329 329 328 327 326 326 326 324 323 323
310 311 311 312 312 313 320 329 332 332 331 326 325 329 329 329 331 335 339 341 340 335 330 330 333 336 336 336 334 331 330 330 330 330 328 328 327 326 324 324 328 333 334 333 331 329 327 326 328 330 329 325 320 318 316 313 312 313 316 322 326 327 328 328 329 329 330 331 332 330 330 330 330 329 328 328 328 328 327 327 327 325 324 323 323
310 310 311 310 311 312 315 322 329 334 336 335 334 334 332 330 328 331 337 340 337 332 330 330 332 334 335 336 336 334 332 332 333 333 330 329 328 327 325 324 328 333 335 334 333 331 330 328 328 329 330 329 324 319 317 317 316 316 320 325 327 327 327 328 330 330 330 331 331 330 329 328 328 327 327 327 328 328 328 327 326 325 324 323 324
309 309 310 310 310 311 313 319 327 331 336 338 339 336 333 334 334 334 336 336 333 331 329 328 329 332 332 334 337 337 334 334 335 335 332 329 328 327 326 324 328 334 336 335 334 332 332 331 330 329 330 331 329 325 323 323 322 322 324 327 328 327 327 327 329 331 331 331 331 330 327 326 327 326 327 327 327 328 327 326 326 325 324 324 324
309 309 309 309 310 310 311 320 329 332 333 337 340 338 336 338 338 338 337 333 331 330 328 327 328 330 330 332 336 338 336 335 336 336 332 330 329 328 327 325 328 334 336 335 335 334 333 333 332 332 331 331 331 329 327 328 328 328 328 328 328 328 327 327 329 330 332 332 332 331 329 328 328 327 328 328 328 327 327 326 325 324 324 324 325
308 309 309 309 309 310 310 315 325 332 333 336 340 340 339 339 338 337 336 334 330 328 328 328 327 328 330 331 334 337 337 336 336 336 333 332 332 331 329 328 329 334 336 336 336 337 336 334 333 333 333 332 332 331 330 329 329 330 330 330 329 329 329 329 329 330 331 332 332 332 331 331 330 329 329 329 329 328 327 327 326 325 324 324 325
308 308 309 309 308 309 310 310 315 324 331 335 338 340 340 339 338 337 335 333 330 328 327 327 326 327 330 330 331 336 338 338 337 337 335 334 335 334 331 330 331 334 335 336 337 338 338 336 335 334 334 334 333 333 332 330 329 330 331 331 330 329 329 330 331 331 331 331 331 331 331 331 331 330 330 331 331 331 330 330 329 326 325 324 325
310 309 309 309 309 309 310 310 309 314 322 328 332 335 338 339 338 336 334 331 328 327 327 326 327 327 328 330 330 333 338 339 338 338 337 336 336 336 334 333 333 334 335 336 336 337 338 338 337 336 335 334 334 334 334 333 331 331 331 331 331 330 330 331 332 331 331 331 331 331 331 330 330 330 330 331 331 331 331 331 330 328 326 325 325
310 310 310 309 310 309 309 310 309 310 312 317 322 328 333 336 336 333 332 330 326 326 327 326 327 327 326 329 330 330 336 340 339 338 338 338 338 337 336 335 334 335 336 336 336 337 338 338 338 338 337 336 335 334 335 334 331 330 331 331 331 331 331 331 331 331 331 332 332 331 331 330 329 328 329 330 331 331 331 331 330 328 327 326 325
309 310 311 310 310 310 309 309 309 310 309 311 317 323 327 331 334 332 327 326 325 325 326 326 326 327 327 329 331 332 337 340 340 339 339 339 338 337 337 336 335 336 337 337 337 337 338 339 339 339 339 338 336 335 334 334 332 330 330 331 331 331 331 331 331 331 331 332 332 331 331 331 330 329 329 329 331 331 331 331 330 328 328 327 325
309 309 310 311 310 310 310 310 310 310 310 310 312 317 322 328 333 333 327 325 326 324 325 326 326 327 329 330 332 336 339 341 341 339 339 339 338 333 334 337 336 337 338 338 338 338 338 339 339 339 339 339 338 336 334 334 332 330 330 330 330 331 331 331 331 330 330 331 331 330 331 331 331 330 330 330 331 331 331 331 330 329 328 327 326
310 310 310 310 310 311 310 310 310 310 310 310 310 312 317 324 331 334 330 327 327 325 324 326 326 326 329 330 332 337 339 340 340 339 339 339 339 335 332 333 336 337 337 337 337 338 338 338 338 338 339 339 338 337 335 334 332 330 329 328 328 328 329 329 329 328 328 329 330 330 331 331 331 331 331 331 331 332 332 331 330 329 329 328 326
310 310 310 311 310 311 311 311 310 310 310 310 311 310 312 319 328 334 334 329 327 327 325 325 326 326 326 327 329 333 336 338 339 339 339 339 340 339 333 328 332 335 335 336 336 337 338 338 337 338 338 339 339 338 336 333 331 329 327 325 323 324 326 326 326 325 326 328 330 330 330 330 331 331 331 332 332 332 332 332 331 330 329 328 327
310 310 310 310 310 310 311 311 311 311 310 310 311 311 310 313 321 329 334 333 329 328 327 325 324 324 325 325 325 327 332 337 340 339 340 340 339 339 336 330 329 332 334 335 336 337 337 338 338 338 338 339 338 337 335 332 330 328 323 320 320 323 325 325 324 324 326 328 328 327 327 328 330 331 332 332 333 332 332 332 331 330 330 329 327
310 311 310 310 310 310 310 311 312 312 311 311 310 311 311 311 314 319 327 334 335 333 330 328 329 330 329 329 328 329 333 339 342 341 340 340 340 338 336 331 330 332 335 336 337 337 337 338 338 337 338 339 338 336 334 331 328 325 319 318 322 324 325 324 324 324 324 325 326 325 325 326 329 331 332 333 333 332 332 332 331 330 330 330 328
310 310 310 310 310 310 310 310 311 312 312 312 311 311 311 312 313 313 319 329 335 335 331 329 333 336 337 337 337 337 338 341 343 341 340 341 341 339 336 334 334 334 336 337 338 337 338 338 338 336 336 337 338 337 335 330 325 322 319 320 324 326 326 327 326 324 323 322 323 323 323 326 330 332 333 333 333 332 332 332 331 330 329 330 329
311 310 310 310 310 310 310 310 310 311 311 312 312 312 313 313 314 314 316 321 327 332 333 331 333 336 338 340 340 341 342 343 343 342 340 341 342 340 337 336 336 336 337 338 339 338 338 338 337 336 335 335 337 337 337 332 324 321 321 323 327 329 330 330 330 326 322 321 322 323 326 329 332 332 333 333 332 332 332 332 332 330 329 329 329
311 311 310 310 310 310 310 310 310 310 310 312 312 313 314 314 315 314 316 320 324 330 335 337 338 338 339 340 338 338 341 342 343 342 341 341 341 340 339 338 337 338 338 339 339 339 338 338 337 337 336 336 336 336 336 333 325 320 321 325 329 332 332 332 333 330 326 324 326 328 331 332 333 333 333 333 332 332 331 331 332 331 330 329 329
310 311 311 310 310 310 310 310 310 310 310 311 311 313 313 314 316 316 316 322 327 331 334 338 339 339 341 341 334 331 336 339 340 342 342 341 340 339 339 340 339 339 339 339 340 340 339 338 337 337 337 337 336 335 335 334 327 319 320 326 330 332 333 333 334 333 331 331 332 333 333 332 332 333 333 332 332 332 331 331 332 332 331 330 329
310 310 311 311 310 311 310 310 310 310 311 311 312 313 314 315 317 317 316 320 324 328 332 336 339 339 340 340 333 329 334 336 337 339 340 340 341 339 338 339 340 340 340 340 340 340 340 339 338 337 337 337 337 336 335 335 330 321 318 324 330 332 333 334 334 335 334 334 334 334 333 332 332 332 333 333 332 332 332 331 332 332 332 331 330
310 310 310 311 310 310 310 310 311 311 311 311 312 312 315 317 317 316 317 319 321 323 327 333 338 340 340 338 333 330 331 330 332 336 338 339 340 340 339 339 340 340 340 340 340 340 340 340 339 338 337 336 337 336 336 336 334 327 319 320 326 331 332 334 334 335 335 335 334 333 333 332 332 332 333 333 332 331 331 331 331 331 331 332 331
310 310 310 310 310 310 310 310 311 311 311 311 312 312 315 318 320 319 317 318 321 323 325 331 336 338 338 337 333 330 330 327 328 333 336 338 339 340 340 340 340 340 340 340 340 340 340 340 339 339 338 336 336 336 336 336 335 332 324 318 321 327 331 333 334 334 334 334 334 333 333 332 332 332 333 333 332 331 331 330 331 331 331 331 331
310 310 310 311 310 310 310 310 311 311 312 312 312 312 314 318 323 323 318 317 321 325 328 332 336 336 336 336 333 330 329 328 327 327 329 334 338 339 340 341 340 340 340 340 340 340 340 340 340 339 338 337 336 337 337 336 336 334 329 322 318 321 326 330 333 333 334 334 334 333 332 332 332 332 332 332 332 331 331 331 331 330 330 331 331
310 310 310 311 310 310 311 311 311 311 312 312 312 312 314 317 322 324 320 319 324 328 331 334 335 335 334 330 327 327 327 325 326 328 328 329 333 334 335 338 339 340 340 340 340 340 340 340 339 339 338 338 337 337 337 337 336 335 333 327 320 317 321 327 331 333 333 334 333 332 332 332 332 332 332 332 332 331 331 331 331 330 330 331 331
310 311 311 312 312 311 311 311 311 311 311 312 312 312 312 315 321 323 322 323 328 331 331 332 334 334 331 324 321 322 323 322 324 329 330 329 329 329 328 331 336 339 340 340 340 340 340 340 339 339 338 338 337 337 337 337 336 335 334 332 325 319 317 323 330 332 332 333 333 332 332 332 332 332 332 332 331 331 331 331 331 331 331 331 331
311 312 312 313 313 313 312 312 312 311 312 312 312 312 311 314 318 322 323 323 329 333 332 328 329 330 327 323 320 320 321 320 320 323 327 328 328 328 328 330 333 336 338 340 340 340 339 339 339 339 338 337 337 337 337 337 336 335 335 334 331 324 317 319 326 329 330 332 333 332 333 332 332 332 332 332 331 331 332 332 331 331 331 331 331
312 313 314 314 314 314 314 314 312 312 312 311 312 312 312 313 315 320 324 324 326 333 334 327 323 323 322 321 320 320 320 321 320 321 325 329 327 327 329 332 335 336 337 338 339 340 340 339 339 339 338 338 337 337 337 337 336 336 335 334 334 330 322 318 320 325 329 331 331 332 333 332 332 332 332 332 332 332 332 332 332 332 332 332 331
313 314 315 315 315 314 315 316 315 313 312 311 312 313 313 313 313 317 324 325 325 330 334 331 325 322 321 319 319 321 320 319 319 320 324 328 329 330 330 330 332 335 335 337 339 340 339 339 339 339 339 338 338 337 337 337 336 336 335 335 335 334 329 322 319 323 328 330 330 331 332 333 332 332 332 332 332 332 332 332 332 332 332 331 331
314 314 314 315 315 315 315 316 316 316 314 313 312 313 314 314 313 315 323 327 326 327 331 332 330 327 324 322 325 328 325 319 318 320 322 326 330 334 335 333 330 331 333 336 339 339 340 340 339 339 339 339 338 338 337 337 337 336 336 336 335 335 333 328 325 325 327 328 329 331 333 334 333 333 333 333 333 332 332 333 333 332 332 332 331
313 314 314 315 315 315 315 316 316 317 317 315 312 313 314 315 314 314 319 327 328 326 327 329 329 329 329 329 332 334 328 320 318 320 322 324 328 331 333 333 333 334 332 331 332 335 336 336 336 337 338 339 339 338 338 338 338 337 336 336 336 335 335 333 331 329 329 329 330 332 333 334 334 334 334 334 333 333 333 333 333 333 332 332 331
312 313 314 315 316 315 315 316 316 317 317 317 315 313 314 315 315 314 319 329 331 328 328 329 328 329 331 332 336 337 331 322 318 320 321 323 325 327 329 332 334 336 334 331 330 330 329 328 330 332 334 336 337 338 338 339 338 338 338 337 337 337 336 335 334 333 333 332 332 333 334 335 336 335 335 334 334 334 333 333 333 333 333 333 332
310 312 314 316 316 316 315 316 317 316 317 319 319 317 314 315 315 315 320 330 334 332 329 329 329 329 329 330 333 335 332 326 322 321 322 323 325 329 332 334 335 334 332 331 332 331 330 329 329 328 328 329 332 336 338 339 339 339 339 338 338 337 337 336 335 335 336 336 335 336 336 336 336 336 336 335 335 335 334 333 333 334 334 333 332
309 311 313 315 317 316 315 316 317 316 316 319 321 321 319 317 316 315 317 324 331 333 331 329 328 327 327 329 331 331 329 327 325 324 324 326 330 334 335 334 334 334 332 329 330 330 330 330 329 328 328 327 327 330 334 337 338 339 339 338 338 338 338 337 337 336 336 337 337 337 338 338 338 338 337 336 336 335 335 334 333 334 334 333 332
309 310 312 314 316 317 316 315 316 316 316 318 320 321 322 321 319 317 316 318 324 330 331 330 330 330 329 330 330 330 329 329 329 328 328 329 333 336 335 332 332 334 333 331 331 330 329 329 328 329 330 329 327 326 327 331 334 336 338 339 338 338 338 339 338 336 335 336 337 338 338 338 338 338 338 337 336 336 335 335 334 334 334 333 332
308 309 310 313 316 317 316 316 316 316 316 317 318 320 323 323 321 320 319 319 322 328 331 332 332 331 332 332 332 332 332 331 330 329 329 329 330 331 330 329 330 333 334 334 334 332 330 329 327 328 329 329 328 327 326 326 328 332 336 339 339 339 339 339 339 337 336 335 336 337 337 338 338 338 338 337 336 336 336 335 334 334 333 333 332
308 308 310 314 316 316 316 317 317 316 316 316 317 318 321 323 323 322 322 323 324 326 326 326 324 325 327 330 332 332 332 331 329 328 328 329 329 328 328 329 330 332 334 334 331 328 327 327 327 328 327 326 326 326 325 325 326 328 333 337 338 339 339 339 339 338 337 336 335 335 335 336 336 336 337 337 336 336 336 335 334 333 333 332 331
307 308 309 313 317 317 317 317 317 317 317 317 316 317 319 322 323 323 324 324 326 326 325 323 322 322 325 327 329 331 331 332 331 331 330 330 330 330 330 329 329 329 330 329 326 324 325 326 328 328 325 324 324 324 324 324 326 327 329 333 337 339 339 340 339 338 338 337 336 336 335 335 335 336 336 337 337 336 336 335 334 332 332 331 331
307 308 308 310 314 317 317 317 318 318 318 318 317 316 317 319 321 323 323 324 325 326 327 327 326 326 327 328 330 331 332 332 332 330 329 328 328 329 330 330 331 330 329 327 326 325 326 326 327 326 325 325 324 324 325 325 326 327 328 330 335 338 339 340 339 338 338 338 337 336 336 335 335 335 335 336 337 337 336 335 334 333 332 331 330
306 308 308 308 311 315 316 317 317 318 318 319 319 318 316 316 318 320 322 324 324 325 325 326 326 326 326 326 328 330 331 331 330 328 326 325 325 326 328 330 332 332 332 331 328 327 327 327 326 326 326 327 327 326 326 327 327 327 327 329 333 337 339 339 340 339 339 338 337 336 336 336 336 336 335 335 335 336 336 335 334 333 332 330 330
306 307 307 308 309 311 314 316 317 317 318 318 319 319 318 317 317 317 319 321 323 324 324 325 325 325 325 324 324 325 327 328 327 327 327 326 325 325 325 327 329 331 332 332 330 329 328 327 327 327 327 328 328 327 327 328 329 329 328 328 331 335 338 339 340 340 340 339 337 335 334 335 335 336 335 334 333 334 335 335 334 333 332 331 330
305 306 307 307 308 309 312 314 315 316 317 317 317 318 319 319 318 317 317 317 319 321 323 324 325 325 325 325 324 324 324 324 325 326 327 326 325 324 324 325 326 328 330 330 330 330 329 328 328 327 327 327 329 329 328 327 329 330 329 328 329 332 336 338 339 340 340 338 336 333 331 332 334 335 335 334 333 333 334 334 333 332 332 331 330
305 305 306 307 308 309 310 311 313 315 316 316 316 317 317 318 319 319 318 317 316 317 319 322 323 324 325 325 325 325 324 323 322 323 323 323 323 324 324 324 326 327 328 329 329 330 330 330 329 327 326 326 329 331 329 326 327 331 331 329 329 331 334 337 339 340 338 336 334 332 331 331 332 335 336 335 334 333 333 333 333 332 332 332 331
304 305 306 307 308 310 311 311 311 313 315 315 315 315 315 316 317 318 318 318 317 316 316 317 319 320 322 323 324 325 325 325 323 322 322 321 322 323 324 324 325 327 327 328 328 329 330 330 329 327 326 326 329 332 331 328 327 329 332 332 332 334 335 337 339 339 337 334 332 332 332 331 331 334 336 336 335 334 333 333 333 333 332 332 332
305 305 307 308 309 310 311 312 312 312 313 314 314 314 314 315 316 316 317 318 318 317 317 316 316 317 317 319 321 323 324 325 325 325 324 322 321 322 322 323 323 325 326 326 327 328 329 330 329 328 327 327 328 330 332 331 330 330 332 334 335 336 337 338 339 338 337 335 332 331 332 333 332 333 336 337 336 334 333 333 334 333 332 333 333
305 305 307 309 310 310 311 312 313 313 312 312 312 312 312 313 315 315 316 317 318 318 318 317 317 317 316 316 317 318 321 323 324 325 325 324 324 323 323 323 324 325 325 326 326 327 329 330 330 329 328 328 328 329 329 330 331 332 334 334 335 336 337 338 338 338 337 336 334 332 332 334 334 334 336 337 336 335 334 334 334 334 333 333 333
306 305 306 308 310 311 311 311 312 313 313 312 311 311 311 312 313 314 316 317 317 318 318 318 318 318 317 317 316 315 317 319 322 323 324 325 326 326 326 326 326 326 326 326 326 327 328 329 330 330 330 331 331 331 330 330 331 332 334 334 334 334 336 337 338 339 338 336 334 333 334 334 334 335 335 336 336 336 335 335 334 334 333 333 333
306 306 306 306 308 309 310 310 311 312 313 313 312 311 310 311 312 313 314 315 316 317 317 318 318 318 318 318 317 316 316 317 318 321 323 324 324 326 327 327 327 327 327 327 327 327 328 328 328 328 329 330 330 331 331 331 332 333 334 333 333 332 333 335 336 337 337 336 334 334 335 335 334 335 336 336 336 336 336 335 334 334 333 333 333
306 306 306 306 306 306 308 309 310 311 311 312 313 312 311 311 312 313 313 314 315 316 316 316 317 317 318 318 318 318 317 316 316 317 320 322 323 324 325 326 326 326 326 326 326 327 327 327 328 327 328 328 328 329 330 330 331 332 332 332 331 331 331 331 332 333 334 335 334 334 334 334 334 334 335 335 335 335 336 336 334 334 333 333 332
307 307 307 306 306 305 306 306 307 308 309 310 312 313 313 313 312 312 313 313 314 314 315 315 315 315 316 317 318 319 319 318 316 315 317 319 322 323 324 324 325 326 326 325 325 326 327 328 328 328 328 328 328 328 329 329 329 330 330 331 331 330 330 330 330 330 331 333 333 333 332 331 331 332 334 335 334 334 335 336 335 334 333 332 332
307 307 306 306 306 306 306 305 305 305 306 307 308 311 313 314 314 313 312 312 312 313 313 314 314 313 314 315 317 318 319 319 318 316 315 316 318 321 323 324 324 326 326 326 326 326 327 328 329 329 329 329 330 330 330 330 331 331 331 331 332 331 331 330 330 330 331 332 332 332 331 330 331 332 334 334 334 334 334 334 335 334 334 333 332
Wind_Speed
10 11 16 22 26 29 32 33 33 29 22 19 26 32 34 31 33 35 35 34 32 28 24 24 25 27 29 32 33 34 35 36 36 37 35 32 31 30 30 29 29 28 27 26 25 24 25 25 24 23 22 22 22 26 31 32 30 28 26 24 23 21 19 18 15 14 15 15 14 15 13 10 9 9 9 9 8 8 8 8 8 8 8 7 7
11 11 13 16 20 23 28 33 37 35 26 21 27 31 32 32 31 29 32 34 30 25 24 25 26 26 26 28 30 33 35 37 37 39 38 35 33 32 32 30 30 30 28 27 26 25 26 26 26 25 23 23 22 24 27 29 28 27 26 25 23 21 18 18 17 16 17 16 14 14 12 11 11 12 12 11 10 10 10 10 10 10 9 8 7
13 12 11 12 17 19 22 27 35 38 33 26 28 30 29 31 32 30 31 30 26 25 26 24 23 23 23 25 29 32 34 36 38 39 39 37 35 34 33 32 31 31 30 28 27 26 26 26 26 25 25 24 24 25 27 28 28 28 27 26 24 21 18 17 17 17 18 16 14 12 11 12 14 14 13 13 12 12 13 12 12 12 10 9 8
16 15 14 12 14 17 19 22 28 35 37 33 33 32 30 31 34 34 31 25 21 22 22 20 19 22 23 25 31 33 34 35 37 38 39 39 37 36 35 33 32 32 31 29 28 27 26 26 26 25 25 25 25 26 28 29 29 28 28 26 24 22 21 18 17 18 19 17 14 11 10 11 13 13 12 12 13 14 14 14 14 12 11 11 10
18 19 19 16 15 15 16 19 23 29 35 38 37 33 34 38 40 39 34 24 21 22 21 22 24 26 27 28 31 33 34 36 37 38 40 40 39 38 35 34 34 34 33 31 29 28 27 26 25 25 25 25 26 27 28 28 28 28 28 27 25 23 22 20 18 20 20 19 16 12 9 9 9 10 9 10 11 13 14 14 14 14 13 13 12
17 19 21 20 17 16 15 15 21 28 33 38 39 34 36 40 40 40 39 33 28 28 29 30 29 29 31 30 29 33 37 39 39 38 38 40 39 37 35 34 35 35 34 32 30 29 28 26 25 25 25 25 25 26 27 28 28 28 27 26 26 24 22 20 20 21 21 22 21 18 14 11 9 9 8 8 9 10 11 11 13 14 14 15 14
17 19 19 19 17 16 16 15 18 25 30 36 40 38 38 38 36 36 38 36 30 28 32 37 34 28 28 28 30 36 42 43 41 40 39 39 37 34 34 35 36 35 34 33 31 29 28 27 26 25 25 25 24 25 26 28 28 27 26 25 25 24 24 22 21 21 22 22 22 21 19 16 15 13 12 10 10 11 11 12 12 13 14 16 15
14 16 16 16 16 15 16 17 17 19 24 32 38 41 42 41 39 37 37 37 33 30 32 38 40 35 29 28 33 40 45 45 43 43 41 37 35 34 34 35 35 35 34 33 31 30 29 28 26 25 25 26 26 25 24 25 26 26 25 25 25 24 24 23 22 22 22 22 21 20 19 18 18 18 17 15 14 14 15 15 14 14 14 15 15
11 12 13 14 15 14 13 14 16 17 19 25 29 35 40 41 40 39 39 38 37 36 35 36 42 43 36 34 38 43 46 46 44 42 40 37 34 34 34 35 35 35 35 33 31 30 30 28 27 26 26 26 26 26 24 24 26 27 26 26 26 25 24 22 22 22 22 21 20 19 18 19 19 19 19 19 18 17 18 17 16 14 13 13 12
10 11 11 13 14 12 12 12 13 15 17 21 23 27 34 38 39 39 40 40 37 37 38 39 42 41 40 41 43 46 46 46 46 44 42 39 35 33 34 35 35 36 36 34 32 31 30 29 27 27 26 27 27 27 26 25 26 28 28 27 26 25 24 23 23 23 22 22 21 19 19 19 20 20 19 19 18 17 17 17 16 14 13 12 9
11 10 10 11 12 12 14 15 14 13 15 19 22 25 28 33 38 39 40 39 38 37 36 41 44 42 42 44 45 48 48 47 48 46 44 42 36 32 34 35 36 36 36 35 34 32 30 29 28 27 27 27 28 28 27 26 26 28 29 28 27 26 25 25 25 24 23 23 22 21 19 19 19 19 19 18 17 17 16 16 15 15 14 12 9
10 10 9 11 12 13 14 15 15 15 14 17 20 24 26 30 36 41 41 37 37 38 38 44 48 44 44 45 46 49 49 48 49 48 47 44 38 32 31 35 37 37 37 37 36 34 32 30 29 28 28 27 28 29 28 26 26 28 30 30 29 28 27 27 27 27 26 25 23 21 19 18 18 18 18 18 18 18 17 15 14 14 14 12 9
12 10 8 8 10 12 14 16 17 17 16 16 19 23 26 28 33 41 45 40 36 37 38 46 50 45 45 47 47 49 49 47 48 49 49 46 43 38 32 31 36 37 38 38 37 36 34 32 31 30 29 28 27 28 28 27 26 28 30 31 30 30 29 29 29 28 27 25 22 20 19 18 18 18 18 19 19 17 17 16 14 14 14 13 11
17 16 13 9 8 10 12 14 17 18 17 17 20 24 25 28 32 38 44 43 39 38 38 43 49 48 47 48 48 49 50 50 48 49 51 49 47 45 37 31 33 35 36 36 37 36 35 33 32 30 29 28 27 28 28 27 27 29 30 31 31 30 29 29 29 28 27 24 22 21 19 18 18 18 18 19 19 17 17 16 15 15 15 15 14
19 19 18 15 13 11 11 11 13 17 18 17 18 23 26 27 29 35 42 44 42 40 40 43 47 51 52 51 51 51 53 53 51 50 52 51 49 47 42 36 33 33 34 35 35 36 36 34 31 29 29 28 28 28 28 28 28 29 29 30 30 28 27 27 27 27 26 25 23 21 20 19 18 18 18 18 18 16 16 16 15 16 16 16 16
22 21 21 21 19 16 13 12 11 14 17 18 17 20 26 28 29 30 37 43 44 43 43 44 46 50 53 54 54 54 54 55 53 51 53 53 50 47 43 40 36 33 34 35 34 35 36 34 32 30 29 29 28 27 27 28 28 29 30 30 29 27 25 25 25 26 26 26 24 22 21 20 19 19 18 18 17 16 16 16 15 15 17 17 17
25 23 22 22 22 20 17 15 13 12 14 17 18 19 23 28 30 29 31 37 43 46 47 48 47 47 48 51 53 54 54 55 54 53 53 52 50 46 44 43 39 35 35 36 35 34 35 34 32 30 29 30 30 28 27 27 28 30 31 31 29 26 25 24 24 25 26 26 25 24 23 21 20 19 18 18 17 17 17 16 15 15 16 18 19
28 25 23 22 21 21 19 18 16 14 13 14 17 19 21 25 28 29 30 33 37 44 49 52 52 48 46 48 49 49 51 53 54 54 53 51 49 46 45 45 41 36 36 36 35 34 34 34 32 31 31 31 30 29 27 27 28 30 32 31 29 27 26 25 24 24 25 25 25 24 23 22 21 19 18 17 17 17 18 17 15 15 15 17 19
29 28 26 23 22 20 19 19 18 17 15 14 14 17 20 23 26 28 29 32 35 39 45 50 50 48 48 47 44 44 46 48 51 53 52 51 49 46 46 46 41 38 37 36 36 36 34 34 34 34 34 32 31 29 28 27 28 30 32 32 31 29 28 27 25 25 24 24 24 24 24 23 21 19 18 18 18 18 18 18 17 15 14 15 17
30 29 27 25 23 21 20 20 19 18 17 15 14 15 18 21 25 28 29 31 35 39 43 48 49 48 48 47 45 46 46 42 42 47 49 49 48 45 46 45 41 39 38 37 37 37 35 34 35 35 35 34 32 30 28 27 28 31 33 33 32 31 30 28 27 26 25 25 24 24 24 23 21 19 18 18 18 19 19 18 18 16 15 15 15
30 28 26 25 23 22 22 21 20 18 17 16 16 15 16 18 23 28 29 30 34 36 40 45 49 50 50 50 49 48 46 40 36 37 42 46 46 44 45 44 41 39 39 37 37 37 36 35 36 36 36 35 34 32 30 28 28 30 33 34 33 32 31 29 28 27 27 26 26 25 24 23 21 20 18 18 18 19 19 19 19 18 17 16 15
28 27 26 24 22 22 23 23 22 19 17 16 16 16 15 16 20 26 29 30 32 34 37 42 46 47 48 50 52 49 44 41 37 35 37 41 43 43 43 43 41 39 38 37 36 36 36 36 36 37 37 37 35 33 32 30 29 30 33 35 35 33 32 31 29 29 28 27 27 26 25 24 22 21 20 19 19 19 19 20 19 19 18 16 15
27 26 25 23 22 21 22 23 23 21 17 16 17 17 16 16 19 23 27 30 31 33 36 40 43 44 44 44 47 46 41 38 38 37 36 38 39 39 41 42 40 38 37 37 36 36 36 37 37 38 38 38 37 35 33 32 30 31 33 36 36 35 33 32 31 31 29 28 28 27 26 24 23 22 21 20 19 19 19 20 19 18 18 17 16
28 26 24 22 20 19 19 22 23 21 18 16 17 18 18 17 19 22 25 28 30 31 34 38 41 41 40 39 39 39 37 34 36 37 37 39 38 35 37 39 38 37 37 37 37 36 36 37 38 38 39 39 38 36 35 33 32 31 32 35 37 37 35 33 32 31 30 29 28 28 26 24 23 22 21 20 20 20 20 19 19 19 18 18 17
29 27 26 22 19 17 18 21 22 19 18 18 17 17 18 18 19 22 25 26 27 29 32 35 37 36 35 33 30 33 35 32 31 32 34 39 39 36 37 39 38 38 38 38 38 37 38 38 39 39 38 38 38 37 36 35 33 32 32 34 36 37 37 35 33 31 30 30 29 28 26 24 23 22 21 21 20 20 20 19 19 19 18 18 18
31 29 26 23 19 17 18 20 20 17 17 18 18 18 19 19 19 20 24 25 25 27 29 32 35 36 36 31 24 25 28 23 20 24 29 34 38 39 40 40 39 38 39 39 39 39 39 40 39 39 38 38 38 38 37 36 34 33 32 33 35 37 37 36 34 32 31 30 29 28 27 25 24 23 22 21 20 19 20 20 19 19 18 18 18
30 29 26 24 21 17 17 19 19 18 17 18 18 18 19 20 18 17 22 25 26 27 29 30 33 36 38 34 26 23 24 20 17 20 26 32 36 38 39 38 37 37 38 39 40 41 40 40 40 39 38 38 38 38 38 37 36 35 34 33 34 35 37 37 36 34 33 32 30 29 28 26 24 23 21 20 20 20 20 19 19 18 18 18 18
30 30 28 26 23 19 17 18 19 20 20 20 19 19 20 21 19 16 18 23 27 29 31 32 34 35 35 32 27 24 23 22 20 20 26 33 36 37 37 36 35 35 35 37 39 41 41 39 39 39 39 38 38 38 38 38 37 36 35 35 34 35 37 38 38 36 35 33 31 29 28 27 25 23 21 20 20 20 20 19 18 18 18 18 18
31 32 31 28 25 20 18 18 19 21 22 21 19 19 21 22 20 16 17 20 25 30 34 36 38 37 32 29 27 27 25 22 21 21 27 34 36 35 35 34 33 33 33 35 38 39 40 40 39 39 39 39 39 39 39 39 38 37 36 36 36 35 36 37 38 37 36 34 32 31 29 27 25 23 21 20 19 19 20 19 19 18 19 18 18
31 33 34 30 26 21 19 18 19 21 24 23 20 19 21 22 21 17 17 19 23 29 34 37 40 40 38 34 31 31 29 25 23 24 29 33 34 33 34 34 34 32 30 32 35 37 37 38 38 39 40 40 40 40 40 39 38 37 36 37 36 35 35 36 36 36 36 35 33 31 30 28 26 24 22 20 20 20 20 20 19 19 19 19 18
32 33 34 32 28 24 21 20 18 19 22 21 19 19 21 22 21 18 17 18 21 27 32 35 36 37 38 39 37 35 32 29 26 27 32 35 33 32 34 35 35 33 30 30 32 33 33 33 36 38 40 40 40 40 40 40 39 37 36 36 36 36 35 35 35 36 36 35 34 32 30 29 27 25 23 21 20 20 21 21 20 20 20 20 20
36 35 34 33 32 27 23 21 17 17 20 20 17 18 21 23 21 18 17 19 21 23 27 31 32 32 33 35 37 36 34 33 31 32 35 36 32 31 33 34 34 33 31 31 31 31 31 32 34 36 37 39 41 41 40 40 39 38 36 35 35 36 35 34 34 35 35 34 33 33 31 30 28 26 23 22 21 21 21 21 21 21 21 21 21
40 37 35 33 33 30 25 21 18 16 17 18 17 17 19 21 21 18 17 20 23 22 22 25 28 29 30 31 32 33 32 33 33 34 36 35 31 29 30 31 30 29 29 29 30 30 30 32 33 34 35 36 38 41 41 40 39 38 36 35 34 35 36 34 33 34 34 33 32 32 32 31 29 27 25 23 22 21 21 21 22 23 23 23 22
42 38 36 33 32 31 26 21 17 15 14 14 16 17 17 18 19 18 17 19 22 22 20 21 23 25 26 28 31 32 31 31 32 32 33 33 31 31 29 28 28 28 28 27 27 27 29 30 32 34 35 34 34 36 38 39 39 37 36 35 34 35 35 35 33 32 33 34 32 31 32 31 29 28 26 24 22 21 22 22 23 24 24 24 24
43 39 37 33 29 30 28 22 18 14 13 13 14 16 16 15 15 15 16 17 19 20 20 20 21 23 24 26 29 30 29 29 29 29 29 29 31 32 31 28 28 29 29 27 26 26 27 28 29 31 34 35 34 32 31 33 36 37 37 37 36 35 35 35 33 31 32 34 33 31 30 29 28 28 26 24 22 21 21 22 23 24 25 25 25
40 37 35 29 25 26 27 24 21 16 13 12 12 14 16 15 12 11 14 16 18 19 19 20 20 21 23 25 26 27 27 26 26 27 27 28 28 29 28 28 28 29 29 28 27 27 27 28 28 28 31 35 35 32 27 28 33 37 39 40 38 36 35 35 33 31 30 31 31 31 30 28 27 26 25 23 22 21 21 22 23 23 24 25 25
40 38 33 24 18 21 25 24 22 18 14 12 11 12 13 14 13 8 7 14 18 19 19 19 20 21 23 24 25 26 25 24 24 24 25 25 25 25 25 26 27 28 29 29 28 27 28 29 29 29 30 32 34 33 28 26 29 33 36 40 40 38 36 35 34 32 31 30 29 28 27 26 26 25 24 22 21 22 22 23 23 22 23 25 25
42 41 35 24 17 19 22 21 20 17 14 12 10 10 11 12 12 11 6 5 12 16 17 18 19 20 21 22 24 24 24 23 24 23 21 21 21 21 22 23 24 26 27 28 28 27 27 29 29 30 30 31 33 33 29 26 28 31 34 37 39 39 38 36 35 34 34 33 30 27 25 24 24 23 22 22 22 23 24 24 23 23 23 25 25
42 42 39 30 21 19 19 17 17 15 14 12 9 8 10 10 10 11 9 6 3 7 11 12 12 13 15 17 19 21 21 22 22 20 19 19 18 18 18 20 22 24 25 27 28 29 29 29 28 28 29 31 32 30 27 26 28 30 32 35 38 40 39 38 36 36 35 34 32 30 27 25 23 22 21 21 22 24 25 25 23 23 24 25 24
42 43 42 35 25 20 19 18 17 15 14 14 11 8 8 10 10 9 8 6 4 3 6 8 8 9 11 14 17 19 20 20 20 19 18 18 17 17 18 20 23 24 25 26 28 30 31 31 30 27 28 31 32 27 24 27 30 31 32 34 38 40 40 39 38 38 38 37 34 31 29 27 25 23 21 21 22 24 25 25 25 25 26 24 22
38 41 42 39 31 25 21 18 16 15 13 14 13 11 9 10 11 10 9 8 6 4 4 6 8 9 11 14 17 19 20 21 21 20 20 20 19 18 20 21 23 25 26 28 29 30 31 32 30 28 28 31 33 29 26 28 33 35 35 37 39 40 39 39 40 40 41 40 36 32 29 27 27 26 23 22 22 23 24 25 27 27 25 22 21
37 40 42 41 36 31 25 20 17 15 14 13 13 13 11 9 9 11 11 11 11 10 8 7 8 9 10 13 16 19 21 22 23 23 23 23 22 21 22 23 24 25 27 28 30 31 32 32 30 29 29 30 32 32 30 31 35 38 39 40 40 40 39 40 41 42 42 41 38 34 29 26 27 27 24 22 21 21 23 25 26 25 23 21 22
37 38 39 39 38 35 31 26 21 16 14 14 13 13 13 11 10 10 11 13 14 14 14 13 12 12 12 12 14 17 20 23 25 26 26 26 25 25 26 26 27 27 27 28 30 32 34 34 32 31 30 31 33 35 34 35 38 40 41 42 42 41 40 40 41 43 42 40 38 36 31 27 27 29 27 23 21 21 22 24 25 24 22 22 24
35 35 36 36 36 36 34 31 26 19 14 13 13 13 13 13 12 11 12 14 15 16 17 18 18 18 17 16 16 16 17 20 24 26 27 28 27 27 28 28 28 28 28 29 30 32 35 36 35 33 31 30 33 37 37 37 39 40 42 43 44 43 42 42 42 43 42 40 38 38 35 29 27 29 29 26 22 21 23 24 24 23 23 24 25
35 35 35 35 35 34 34 33 31 25 19 15 14 14 13 13 13 13 13 14 15 17 19 20 21 22 22 22 22 21 20 20 22 24 26 28 29 29 30 30 30 29 29 30 31 32 35 37 37 36 34 33 34 37 39 39 39 40 42 44 45 45 44 43 43 44 43 42 41 39 36 32 29 29 29 28 24 22 23 24 23 22 24 26 28
37 36 35 35 35 34 33 33 33 31 27 24 22 20 18 14 12 12 13 13 14 16 18 20 22 23 24 25 26 26 25 24 24 24 25 27 29 29 30 31 31 31 30 31 32 33 34 35 37 37 37 36 36 38 40 40 40 41 42 43 44 44 44 44 45 45 44 44 43 39 36 34 32 31 31 30 27 24 23 23 23 24 26 29 31
35 36 36 36 36 36 36 35 35 34 33 31 29 26 23 18 14 12 11 11 11 13 16 19 21 23 25 26 28 29 30 30 29 28 28 28 29 29 30 30 30 30 30 30 32 33 33 34 36 36 37 37 37 38 39 39 40 41 42 42 42 43 44 45 46 46 45 45 43 39 37 36 34 33 33 31 28 26 25 24 25 27 29 31 32
33 35 37 37 36 37 36 37 37 36 35 35 34 32 28 23 20 17 14 12 12 12 14 16 18 21 24 26 28 31 33 34 34 33 32 32 32 31 31 32 31 30 29 29 30 32 33 33 34 35 36 36 36 37 38 38 39 40 41 42 42 43 44 45 47 48 47 45 41 40 40 39 37 36 37 35 32 30 29 29 28 29 31 33 34
31 33 35 37 37 37 36 36 36 36 35 35 36 35 32 27 24 22 19 17 17 16 17 18 20 21 22 25 28 31 34 36 37 38 37 36 36 35 35 34 33 30 29 29 29 29 29 30 31 33 34 36 37 38 37 36 36 38 40 41 42 41 41 42 43 44 44 43 42 42 42 42 40 41 42 40 36 34 33 33 33 34 35 36 37
30 32 33 34 36 36 36 36 36 36 36 36 36 35 33 30 27 25 24 23 23 23 24 25 26 27 27 26 28 31 34 37 39 41 41 40 39 38 37 37 36 33 30 29 29 29 28 27 28 30 32 34 36 36 32 30 32 35 38 39 39 37 36 36 37 37 39 43 44 43 44 44 43 44 45 44 40 38 37 37 37 38 39 39 40
28 30 32 34 35 36 37 37 37 36 36 36 36 35 34 32 29 28 28 28 27 27 28 29 30 32 33 32 31 31 34 37 40 42 44 44 43 42 41 39 38 36 33 31 31 30 28 27 28 29 29 30 32 30 28 28 29 31 33 34 35 34 34 35 35 36 39 43 45 45 45 45 45 46 47 46 43 40 39 39 39 40 41 42 42
Wind_Direction
275 272 266 263 261 254 245 237 232 232 230 245 258 243 233 234 227 219 217 213 207 205 205 209 215 220 226 231 233 236 238 237 234 232 230 226 222 222 218 214 213 212 209 204 201 199 196 194 194 195 198 200 199 199 201 204 206 207 207 207 208 212 216 216 210 205 205 203 199 201 212 226 235 247 256 258 260 259 264 275 287 297 303 312 323
277 267 273 274 270 263 250 239 235 237 232 236 255 250 236 229 225 220 215 213 209 203 198 200 207 217 227 233 234 236 239 240 238 234 231 227 223 223 221 216 213 214 212 208 204 201 197 195 195 195 197 199 197 196 198 202 205 206 206 206 209 214 219 222 218 208 207 211 209 208 215 227 238 248 253 252 251 250 256 268 278 283 286 292 303
287 274 274 277 277 271 258 245 237 239 239 233 241 246 239 231 233 233 224 219 214 203 198 200 207 220 231 236 238 238 238 240 241 238 234 229 225 224 223 219 214 214 215 213 209 204 200 197 197 197 198 199 198 196 197 201 204 205 207 208 211 214 216 222 223 217 215 213 211 215 217 218 231 247 252 251 252 251 255 263 268 270 271 276 286
298 295 289 287 286 278 267 255 242 238 238 233 230 233 235 230 228 232 229 223 219 211 211 219 220 222 232 243 246 243 238 239 242 240 235 230 226 223 223 221 217 216 217 216 214 210 204 200 198 199 200 201 201 200 199 201 204 206 209 211 214 215 216 218 217 218 221 219 211 208 208 214 233 250 255 256 257 258 262 265 264 264 262 265 275
303 307 306 304 299 291 278 262 249 240 236 233 228 226 233 232 225 224 224 221 225 225 227 235 228 222 232 244 246 244 241 240 240 239 233 228 225 222 222 222 219 217 217 217 217 215 210 204 201 201 203 204 205 205 204 204 205 208 211 214 216 219 221 220 218 217 221 227 227 221 211 217 245 265 265 263 265 266 268 268 266 264 261 261 267
298 303 307 308 303 298 288 265 246 240 238 235 229 224 229 230 221 216 218 222 232 235 234 237 234 231 235 241 240 236 238 238 234 231 227 223 222 221 219 220 219 219 218 218 217 217 216 211 207 206 206 207 208 209 209 209 209 210 214 217 218 222 225 225 223 221 221 226 232 236 238 245 262 275 272 271 278 279 277 276 275 269 260 258 261
302 302 303 305 303 296 289 276 251 240 238 235 228 223 222 220 216 216 220 222 222 223 223 224 232 242 243 245 244 235 233 234 230 227 224 220 220 220 218 217 218 219 220 219 218 218 219 217 214 211 211 213 213 213 214 215 215 215 217 219 221 223 226 228 228 227 227 229 234 240 247 254 261 267 271 277 284 286 288 290 288 279 267 261 261
316 307 303 304 306 302 289 280 270 254 242 236 230 226 223 222 222 225 225 220 211 211 215 214 222 238 240 240 245 240 236 236 233 230 227 222 220 221 219 216 217 220 221 221 220 220 220 220 219 217 216 217 219 220 221 222 222 221 221 222 223 225 228 230 231 233 235 237 239 243 249 255 260 264 268 272 276 283 289 292 292 289 281 274 268
322 310 303 299 300 304 294 279 276 269 254 245 240 234 232 230 230 229 227 221 212 212 219 216 219 230 233 231 237 242 239 237 236 233 229 224 221 222 221 217 217 220 221 221 222 223 222 222 221 221 221 221 223 225 227 228 228 227 225 225 225 227 229 232 234 239 244 247 248 251 256 259 260 263 266 269 274 281 287 291 295 292 288 290 285
313 305 301 292 287 291 294 287 281 274 265 260 253 245 239 235 234 231 227 225 216 211 217 218 220 230 236 233 234 238 237 235 235 233 229 226 223 223 223 220 219 219 220 221 222 223 223 224 224 223 225 226 227 228 229 231 231 230 230 230 230 230 231 234 238 243 249 253 256 260 263 263 261 263 268 274 280 287 291 296 299 293 289 296 294
300 297 294 290 285 279 282 282 278 274 272 266 257 250 245 238 234 229 225 225 219 213 214 214 219 232 238 233 233 235 233 230 232 232 229 226 223 225 225 222 221 220 220 221 222 222 222 225 227 226 227 228 229 230 231 233 233 231 231 232 233 232 233 235 239 244 248 252 255 258 262 265 266 268 273 279 285 292 297 302 303 295 289 291 286
307 296 289 284 280 273 270 269 266 262 264 263 254 249 246 240 235 228 225 225 220 218 216 210 217 232 236 232 232 233 230 227 229 232 230 225 223 227 227 222 221 220 221 222 222 222 221 224 227 227 228 228 229 231 232 235 234 230 230 231 232 232 233 236 239 243 245 247 249 252 258 265 268 271 274 275 280 288 293 296 297 292 285 284 283
352 338 318 292 277 272 266 262 259 254 253 256 250 245 242 238 234 229 228 229 222 219 214 206 213 227 233 233 232 231 231 230 230 231 232 229 226 227 230 228 223 220 221 221 221 222 221 222 225 227 227 228 230 232 233 235 233 228 228 229 231 231 232 235 238 241 243 244 246 250 256 263 267 271 272 269 272 280 285 285 286 284 280 278 276
4 1 357 343 317 294 278 265 258 251 249 252 249 244 240 236 232 229 230 230 224 219 215 211 214 221 228 234 235 234 234 235 234 233 232 231 229 229 234 240 233 225 224 222 221 222 223 224 226 228 229 229 231 232 233 234 231 227 228 228 229 229 230 234 237 240 241 242 244 247 251 259 264 268 268 266 269 273 276 279 280 278 276 274 270
351 352 357 358 351 331 307 285 265 253 248 249 249 243 238 235 231 228 228 228 226 223 222 223 225 226 228 230 232 235 235 235 236 236 234 232 232 232 236 243 243 235 230 225 222 223 225 226 226 229 232 232 232 232 232 232 228 226 227 226 225 225 228 233 236 238 239 240 242 245 250 256 260 262 263 263 266 268 269 273 274 271 271 273 271
338 338 343 348 352 348 332 311 284 261 250 248 250 244 237 234 230 230 229 227 227 227 227 229 231 231 229 228 228 231 233 233 233 235 234 233 233 235 239 246 247 240 234 229 226 226 227 228 227 229 233 233 232 231 231 230 225 223 223 221 219 221 225 230 234 236 238 240 243 246 250 254 257 258 259 259 260 260 260 265 267 265 264 268 270
336 333 333 334 341 346 342 330 308 283 262 254 251 246 241 237 232 230 231 230 230 231 230 230 230 228 228 228 227 228 231 231 230 232 233 233 233 235 241 246 245 241 238 234 230 229 230 230 229 230 234 235 232 231 231 229 224 221 221 218 216 218 223 228 232 235 237 239 243 246 249 252 254 255 254 253 253 252 252 256 262 263 259 260 265
333 330 328 327 331 337 342 339 322 303 285 268 259 252 246 242 239 234 232 232 233 234 233 233 233 231 230 229 226 226 231 231 231 232 233 233 234 236 240 244 244 241 240 237 234 233 233 233 231 230 232 234 233 231 231 230 225 221 221 219 217 218 222 227 231 234 235 237 240 243 246 248 249 249 250 248 245 244 246 249 254 258 256 256 259
330 329 328 327 329 331 336 339 329 312 297 284 276 266 251 241 239 237 235 236 236 236 235 234 235 234 233 234 232 231 234 234 231 232 233 233 234 236 240 242 243 242 241 240 237 235 235 234 232 232 231 232 233 232 231 230 226 222 221 220 218 218 222 226 230 232 233 234 237 240 243 244 245 246 246 243 240 239 240 243 248 251 253 255 257
327 328 328 327 328 329 331 334 332 319 303 294 290 279 262 246 237 233 233 236 238 237 236 235 236 236 235 236 238 237 238 239 234 230 231 233 233 236 241 242 240 240 241 242 240 237 236 236 235 234 233 232 232 231 231 231 227 222 221 222 220 220 222 225 228 231 232 233 236 239 242 242 242 243 243 241 239 239 239 240 244 248 249 251 253
323 324 325 326 327 328 328 330 329 320 306 298 294 285 273 258 243 234 229 232 235 236 237 237 236 237 235 235 236 236 236 241 242 237 234 234 233 234 239 243 241 240 241 242 242 240 238 238 238 237 236 234 234 233 231 231 230 225 222 223 223 223 223 225 228 230 232 234 237 240 241 241 241 243 243 241 239 239 239 239 240 244 246 246 250
319 320 322 324 325 327 328 330 329 320 305 298 295 288 279 269 254 239 230 228 229 231 235 238 236 235 235 235 236 236 238 245 251 248 239 237 235 233 237 242 243 242 243 244 245 245 242 241 241 241 239 238 237 236 234 233 233 230 225 225 225 225 226 227 229 231 232 234 237 239 241 240 240 242 243 242 239 238 239 240 240 242 246 246 249
317 317 320 323 324 326 326 328 329 321 306 298 295 289 281 273 264 249 234 228 227 228 232 237 238 236 234 234 233 235 241 247 250 249 244 239 236 235 238 242 244 245 246 248 249 248 246 244 243 243 242 241 240 239 238 236 235 234 230 228 227 227 228 229 231 232 233 235 237 239 240 239 239 241 243 242 240 238 237 239 240 242 245 246 248
317 317 320 323 322 322 324 325 327 320 305 296 294 290 283 272 264 256 241 229 228 229 231 235 238 236 234 232 232 235 239 243 247 249 247 241 237 237 241 245 247 249 250 251 252 251 249 247 245 244 243 242 241 241 240 239 238 237 235 233 230 230 230 231 233 234 235 236 237 239 239 239 239 241 242 242 241 240 238 239 240 241 243 246 247
319 320 322 323 321 320 322 324 326 322 307 296 290 287 285 274 262 257 248 234 227 229 231 234 235 232 229 230 233 234 233 239 248 245 240 241 242 243 246 249 250 251 251 251 251 251 250 248 246 246 245 243 242 241 241 241 240 239 238 237 235 233 232 233 234 236 237 238 238 240 240 240 240 241 241 243 244 243 242 241 242 243 244 246 249
322 323 324 326 327 326 327 327 326 324 312 300 286 278 281 275 261 256 252 241 229 227 229 232 230 222 220 223 223 218 216 224 239 234 231 240 246 246 247 250 250 250 250 251 251 251 250 248 248 247 246 245 243 242 243 243 242 240 239 240 239 236 234 234 235 236 239 240 239 240 242 242 242 242 243 245 246 247 246 244 244 245 246 247 250
326 327 327 329 332 335 335 331 327 324 318 307 289 274 274 274 263 253 252 246 234 226 224 226 223 217 217 220 220 214 209 209 221 229 233 241 247 247 246 248 250 249 249 250 251 251 250 250 250 249 248 246 244 243 244 244 244 243 241 240 241 240 236 235 236 237 239 241 241 242 243 243 243 244 246 248 249 249 248 247 247 247 247 248 250
334 333 330 329 330 335 339 336 330 325 320 314 296 275 268 272 267 253 249 246 237 229 223 219 218 218 219 218 217 219 216 211 215 227 236 241 246 248 246 246 248 250 252 254 254 253 252 251 251 251 250 248 246 245 245 245 245 244 243 242 241 241 239 236 237 239 240 242 242 243 244 245 245 246 248 251 252 252 252 250 248 247 247 248 249
337 336 334 330 327 329 336 339 338 331 324 319 304 279 267 268 266 255 248 244 236 230 225 220 220 222 222 214 213 220 221 214 214 223 235 241 244 247 248 246 246 248 252 254 255 255 254 253 253 252 251 249 248 247 247 246 245 244 244 244 243 242 241 238 238 239 241 243 244 245 246 246 246 246 248 252 253 254 254 252 249 247 247 247 247
337 334 333 330 325 323 325 330 340 339 331 324 311 291 275 268 264 256 250 245 237 230 225 222 222 225 226 223 223 226 224 219 218 224 234 239 240 242 243 243 244 247 250 251 250 249 249 251 253 254 252 250 250 251 250 249 248 247 247 246 245 244 242 240 239 239 241 244 245 246 246 246 247 248 249 251 253 254 254 253 251 248 247 246 245
339 334 331 328 324 320 318 321 333 343 340 333 320 301 284 272 264 254 248 246 239 232 227 224 222 224 228 231 233 233 226 219 221 228 237 242 242 241 242 243 245 247 250 251 248 245 247 254 258 257 255 254 254 255 254 253 251 250 250 249 248 246 245 243 241 241 242 244 245 247 247 247 248 249 249 250 253 255 256 255 253 250 247 245 246
341 336 332 328 323 318 315 316 325 340 345 343 332 310 292 282 270 253 245 246 243 235 230 227 225 226 229 233 235 234 228 220 220 227 237 245 247 245 246 247 247 246 248 249 246 245 249 254 258 258 258 260 261 259 257 257 256 253 252 252 251 250 248 246 244 243 243 244 246 248 249 249 250 250 252 253 254 255 256 257 255 253 248 246 248
343 340 335 329 323 317 311 310 317 331 343 349 345 324 303 290 275 255 242 243 244 241 233 229 229 230 233 237 238 237 234 230 229 233 239 244 247 245 246 247 245 244 246 246 246 247 250 250 252 254 256 261 265 264 260 259 258 256 255 254 254 252 251 248 246 245 245 245 246 248 250 251 251 252 253 253 254 255 255 256 256 254 250 247 249
347 342 338 331 324 317 308 304 309 322 336 347 349 339 320 298 278 257 241 238 241 242 235 228 227 227 230 236 239 239 238 237 237 238 241 244 244 243 245 247 244 240 239 243 245 247 249 251 253 255 254 255 261 265 265 262 259 256 254 254 255 254 253 250 248 246 245 244 244 247 250 251 252 252 252 253 254 255 256 255 255 255 253 251 251
346 341 338 334 327 318 309 305 305 314 332 341 345 349 340 318 289 261 244 235 234 238 235 229 228 228 230 235 237 238 238 236 235 237 239 241 241 242 244 247 247 244 242 244 245 244 246 248 250 253 254 254 255 259 264 269 268 264 260 257 255 253 252 251 249 246 246 245 243 244 247 249 250 250 250 251 252 255 256 256 255 256 256 254 254
346 342 339 337 329 317 311 309 306 308 324 334 336 347 351 339 315 274 244 233 229 232 236 235 234 234 233 234 234 235 235 233 234 235 236 238 240 242 246 249 250 247 244 243 245 246 248 248 247 248 251 253 252 250 254 267 274 271 265 260 254 250 249 250 248 245 244 245 245 243 243 244 246 247 246 247 249 252 254 254 254 255 255 254 254
350 348 347 346 335 322 316 313 310 307 313 322 326 337 349 349 341 320 252 229 226 227 231 234 237 237 236 236 236 235 234 233 233 235 236 237 240 242 246 249 249 247 244 243 246 249 251 250 247 246 248 252 251 247 248 259 264 262 262 261 255 249 247 248 246 243 242 243 243 243 243 242 243 243 243 243 246 249 251 252 253 253 253 253 252
355 354 355 1 0 346 332 320 316 311 307 312 315 317 330 342 347 349 342 252 234 234 234 234 234 234 233 233 233 233 232 231 230 229 229 232 236 239 242 246 249 249 249 249 250 251 251 251 249 249 251 254 252 248 247 252 253 250 254 258 254 247 244 245 244 242 241 241 239 238 238 240 241 241 241 241 243 247 250 251 252 253 252 252 251
358 358 359 6 13 8 357 343 332 321 308 309 309 300 306 319 332 343 355 2 306 258 249 241 236 234 231 230 230 230 230 229 227 224 222 223 227 231 237 244 249 251 252 253 253 251 250 250 251 252 253 251 249 246 244 246 246 244 248 255 252 244 241 244 244 242 241 241 239 236 234 235 237 239 239 240 241 244 248 250 252 254 253 252 251
356 358 1 9 19 22 19 14 3 345 323 312 309 300 290 292 301 312 325 345 354 293 255 244 237 231 224 224 227 228 229 228 225 222 219 220 223 229 236 242 247 249 250 252 252 251 249 249 250 251 251 247 240 234 234 239 240 238 241 249 252 249 246 245 246 245 243 243 241 238 236 234 233 234 237 241 243 243 245 249 251 252 253 254 253
356 357 2 10 21 26 28 29 22 7 346 325 315 309 292 278 278 283 286 292 293 277 255 237 231 227 222 221 223 225 227 226 223 224 226 226 226 228 233 238 243 247 249 250 250 250 249 249 247 246 249 247 239 230 227 234 238 237 236 240 247 250 249 247 247 247 246 246 245 243 240 238 235 234 234 238 244 245 244 247 251 253 256 258 255
2 1 3 8 17 25 29 30 26 16 0 346 333 323 314 298 281 272 268 267 267 265 259 244 234 231 227 224 224 225 227 226 224 227 230 229 228 229 231 235 241 246 249 250 251 252 251 250 247 245 246 247 243 235 229 230 236 239 239 239 242 245 245 245 246 246 246 247 247 247 246 244 241 239 234 232 241 246 245 246 251 255 257 258 256
8 5 4 8 15 23 28 28 26 21 4 352 347 338 333 327 310 286 266 256 253 253 254 250 245 242 237 233 230 228 228 228 226 226 227 226 226 228 231 235 240 244 248 249 252 254 254 252 250 246 244 244 243 240 235 231 233 238 242 243 244 246 246 245 245 245 246 248 250 250 250 247 244 242 237 232 235 242 245 248 250 251 252 254 255
14 10 8 11 15 21 27 26 26 26 15 359 352 345 338 332 323 309 284 265 253 247 246 245 244 244 243 242 241 236 232 228 226 226 226 224 224 227 230 234 238 242 246 248 250 253 254 252 250 246 242 240 241 242 240 235 234 238 242 245 246 248 248 246 244 244 248 253 254 253 251 250 246 243 240 237 235 238 245 248 248 247 248 250 253
17 16 15 16 17 20 25 25 25 27 26 23 15 2 347 333 323 315 302 286 270 258 252 247 244 243 242 242 244 242 239 234 229 227 226 224 224 226 229 232 236 239 242 245 247 250 251 252 250 247 242 239 239 242 242 239 236 238 242 245 247 249 248 245 243 245 249 254 256 255 253 251 249 245 243 240 236 234 238 243 242 242 244 247 250
17 18 19 19 20 23 24 23 24 25 26 28 27 20 10 356 335 320 312 303 289 277 268 260 255 250 245 242 242 242 241 240 237 234 231 228 227 229 230 233 237 239 240 242 245 248 249 250 250 248 245 242 242 243 244 242 240 241 243 244 247 248 248 247 247 248 250 252 254 254 252 250 248 246 244 241 236 232 234 236 237 239 242 244 247
17 18 19 20 22 23 23 23 23 23 21 22 23 21 19 14 4 349 334 323 311 298 286 277 271 264 256 250 245 242 241 240 239 239 237 234 232 231 232 234 237 238 238 240 243 246 247 247 248 249 248 247 246 245 245 244 243 243 244 244 245 246 247 247 248 249 249 249 249 250 249 249 250 249 246 244 241 238 235 233 232 236 241 244 247
14 15 17 19 21 22 22 22 23 22 20 17 17 18 18 20 20 13 2 353 345 331 318 307 294 282 271 262 253 247 243 240 238 239 239 238 236 234 232 232 234 234 235 237 241 244 245 245 246 247 248 248 247 245 244 243 243 242 242 242 243 244 245 246 247 247 247 247 245 244 245 247 247 247 246 243 239 236 234 231 230 233 238 243 246
11 11 13 15 17 19 19 19 20 21 20 16 14 14 15 19 24 22 18 12 7 359 349 339 326 310 293 277 264 254 247 242 239 237 237 237 237 237 236 235 235 235 235 236 241 245 247 248 248 248 248 248 248 246 244 244 244 243 241 241 242 244 247 249 250 251 250 247 242 238 240 242 242 243 243 240 236 234 233 231 230 232 234 238 242
5 6 8 9 10 13 14 15 14 15 16 15 13 11 11 15 21 24 23 19 14 10 4 356 345 333 317 298 278 261 250 243 239 236 236 236 236 237 239 238 238 238 236 237 242 247 250 254 255 254 252 251 251 251 251 250 248 245 242 242 243 246 249 253 256 257 253 247 242 238 239 242 242 240 240 238 236 234 234 233 232 232 234 236 238
359 359 2 4 5 4 5 8 10 10 11 11 11 10 10 12 16 20 20 17 14 11 6 360 352 342 330 314 295 274 255 245 239 235 234 235 235 235 237 239 239 239 237 235 238 243 247 252 256 257 258 258 258 257 254 252 251 249 247 246 247 249 252 256 258 257 251 245 241 238 240 244 245 242 241 240 239 238 238 238 236 235 236 238 239